[[{"header":{"parameterUnit":"m.s-1","parameterCategory":1,"la1":30.2991,"la2":30.254,"lo1":-89.0895,"lo2":-89.0444,"dy":0.0017,"dx":0.0017,"nx":28,"ny":28,"refTime":"2023-08-21T21:00:00:Z","depth":0,"parameterNumber":2,"parameterNumberName":"U-component_of_WINDS"},"data":[0,0,0,0,0,0,0,0,0,0,0,0,0,0,0,0,0,0,0,0,0,0,0,0,0,0,0,0,0,0,0,0,0,0,0,0,0,0,0,0,0,0,0,0,0,0,0,0,0,0,0,0,0,0,0,0,0,0,-3.6553,-3.6554,0,-3.6586,-3.6587,-3.6587,-3.6502,-3.6499,-3.6497,-3.6494,-3.6525,-3.6529,-3.6532,0,0,0,0,0,0,0,0,0,0,0,0,0,-3.6415,-3.6418,-3.6553,-3.6554,-3.6554,-3.6586,-3.6587,-3.6587,-3.6503,-3.6499,-3.6496,-3.6493,-3.6524,-3.6528,-3.6532,0,0,0,0,0,0,0,0,0,0,0,0,0,-3.6464,-3.6419,-3.6553,-3.6516,-3.6513,-3.6586,-3.6587,-3.6587,-3.6503,-3.6499,-3.6495,-3.6492,-3.6523,-3.6528,-3.6533,-3.6643,0,0,-3.6548,-3.655,0,0,0,0,0,0,0,0,-3.6461,-3.6469,-3.6521,-3.6519,-3.6515,-3.6536,-3.6549,-3.6606,-3.6504,-3.6507,-3.6494,-3.649,-3.6532,-3.6536,-3.6551,-3.6644,-3.6645,-3.6548,-3.6551,-3.6553,-3.6555,0,0,0,0,0,0,0,-3.6458,-3.6467,-3.6566,-3.6522,-3.6518,-3.6497,-3.6499,-3.6559,-3.6541,-3.6506,-3.65,-3.6505,-3.653,-3.6546,-3.6551,-3.6646,-3.6548,-3.6552,-3.6556,-3.6557,-3.683,-3.6834,0,0,0,0,0,0,-3.646,-3.6465,-3.6565,-3.6567,-3.6478,-3.6502,-3.6505,-3.6533,-3.654,-3.6538,-3.6509,-3.6501,-3.654,-3.6545,-3.6552,-3.6679,-3.6553,-3.6558,-3.6561,-3.6826,-3.6831,-3.6836,0,0,0,0,0,0,-3.6457,-3.647,-3.6564,-3.6514,-3.6525,-3.6509,-3.6541,-3.6536,-3.6552,-3.6542,-3.6538,-3.6529,-3.6537,-3.6545,-3.6621,-3.6679,-3.656,-3.6565,-3.6821,-3.6827,-3.6833,-3.6937,0,0,0,0,0,0,-3.6454,-3.6469,-3.6511,-3.6516,-3.6528,-3.6633,-3.6545,-3.654,-3.6562,-3.6552,-3.656,-3.6558,-3.6534,-3.6614,-3.6626,-3.6684,-3.6569,-3.6815,-3.6824,-3.6831,-3.6928,-3.6946,-3.6962,0,0,0,0,0,-3.6449,-3.6539,-3.6514,-3.6526,-3.658,-3.6637,-3.6643,-3.6615,-3.6567,-3.6608,-3.6602,-3.6557,-3.6672,-3.6622,-3.6635,-3.6696,-3.6811,-3.6821,-3.6831,-3.6921,-3.6943,-3.6961,0,0,0,0,0,0,-3.654,-3.6539,-3.6511,-3.6605,-3.6622,-3.6622,-3.6674,-3.6639,-3.6669,-3.6659,-3.6622,-3.6625,-3.6707,-3.6709,-3.6654,-3.6802,-3.6733,-3.6746,-3.6797,-3.6818,-3.6834,-3.6831,-3.6573,0,0,0,0,0,-3.6572,-3.6618,-3.6614,-3.6698,-3.6708,-3.669,-3.6713,-3.6691,-3.6706,-3.6712,-3.6711,-3.6727,-3.6766,-3.6792,-3.6828,-3.6929,-3.6929,-3.6977,-3.6994,-3.7008,-3.7018,-3.707,-3.7091,-3.6867,-3.6867,-3.6867,0,0,-3.6636,-3.6641,-3.6673,-3.6716,-3.6726,-3.6775,-3.6696,-3.6751,-3.6786,-3.672,-3.6791,-3.6792,-3.6807,-3.6895,-3.6934,-3.6899,-3.708,-3.702,-3.7031,-3.7034,-3.7082,-3.7104,-3.7122,-3.6874,-3.6873,-3.6871,0,0,-3.6778,-3.6788,-3.6858,-3.687,-3.6887,-3.6874,-3.6891,-3.6897,-3.6895,-3.6966,-3.6918,-3.6959,-3.7028,-3.704,-3.7055,-3.7204,-3.7163,-3.7216,-3.7302,-3.7354,-3.7371,-3.7387,-3.7438,-3.7457,-3.7228,-3.7228,-3.7228,0,-3.6856,-3.6927,-3.6898,-3.6956,-3.6976,-3.692,-3.699,-3.7003,-3.703,-3.7045,-3.7006,-3.7091,-3.7097,-3.7187,-3.7224,-3.7239,-3.7256,-3.7214,-3.7372,-3.7387,-3.7401,-3.7449,-3.7468,-3.7234,-3.7233,-3.7233,-3.7232,0,-3.7021,-3.7072,-3.7127,-3.7155,-3.7181,-3.7245,-3.7224,-3.7255,-3.723,-3.7222,-3.7294,-3.7301,-3.7336,-3.7356,-3.7332,-3.7443,-3.7421,-3.7378,-3.7307,-3.7429,-3.7473,-3.7492,-3.7243,-3.7241,-3.7239,-3.7237,0,0,-3.722,-3.7232,-3.7252,-3.7264,-3.7279,-3.7317,-3.7378,-3.7414,-3.744,-3.7461,-3.751,-3.757,-3.753,-3.7548,-3.7525,-3.7571,-3.7686,-3.7521,-3.7521,-3.755,-3.7806,-3.7837,-3.7859,-3.766,-3.7664,-3.7667,-3.7804,0,-3.7358,-3.7464,-3.7439,-3.7543,-3.7588,-3.7536,-3.7589,-3.7604,-3.7598,-3.7635,-3.7628,-3.7671,-3.7616,-3.7626,-3.7669,-3.7663,-3.7736,-3.7653,-3.7704,-3.7706,-3.7699,-3.7882,-3.7915,-3.8045,-3.7822,-3.7825,-3.7827,0,-3.7534,-3.7562,-3.7671,-3.7678,-3.7696,-3.7744,-3.7774,-3.7811,-3.7826,-3.7819,-3.7839,-3.7808,-3.7867,-3.7798,-3.7879,-3.7823,-3.7843,-3.7843,-3.7847,-3.7849,-3.7772,-3.7887,-3.8086,-3.8104,-3.7854,-3.7852,-3.785,0,-3.7665,-3.7731,-3.7804,-3.7816,-3.7826,-3.7861,-3.7867,-3.7879,-3.7902,-3.7928,-3.7942,-3.7976,-3.7993,-3.802,-3.7998,-3.795,-3.8082,-3.8011,-3.8075,-3.8076,-3.8103,-3.8101,-3.8306,-3.8121,-3.812,-3.812,-3.8119,0,-3.7821,-3.7889,-3.7863,-3.7907,-3.7981,-3.7953,-3.8027,-3.8027,-3.8037,-3.808,-3.8038,-3.8079,-3.8049,-3.8088,-3.8071,-3.8139,-3.8148,-3.8143,-3.8137,-3.8145,-3.8146,-3.8156,-3.8146,-3.8125,-3.8124,-3.8123,-3.8122,0,-3.7979,-3.7965,-3.8041,-3.8045,-3.8048,-3.8102,-3.8105,-3.8146,-3.8138,-3.8193,-3.8204,-3.8191,-3.8234,-3.8215,-3.8261,-3.8249,-3.8337,-3.832,-3.8332,-3.8326,-3.8391,-3.8385,-3.8607,-3.8634,-3.8434,-3.8436,-3.8437,0,-3.8079,-3.813,-3.814,-3.8166,-3.8175,-3.8218,-3.8241,-3.8215,-3.8241,-3.8262,-3.83,-3.834,-3.837,-3.8441,-3.8435,-3.847,-3.8452,-3.8528,-3.8457,-3.8463,-3.8451,-3.8447,-3.8451,-3.8541,-3.8544,-3.8546,-3.8547,0,-3.8256,-3.8246,-3.8282,-3.8315,-3.8345,-3.8369,-3.839,-3.8414,-3.8389,-3.842,-3.8464,-3.8487,-3.8534,-3.8573,-3.8604,-3.8609,-3.8574,-3.857,-3.8586,-3.8594,-3.8598,-3.8595,-3.8368,-3.8564,-3.8563,-3.8561,-3.856,-3.856,-3.8386,-3.8429,-3.8442,-3.8483,-3.8497,-3.8517,-3.8556,-3.8553,-3.8589,-3.8625,-3.8608,-3.8659,-3.8672,-3.871,-3.872,-3.8758,-3.8728,-3.8753,-3.8758,-3.8764,-3.8772,-3.8594,-3.8764,-3.8764,-3.8763,-3.8763,-3.8762,0,-3.856,-3.8566,-3.8604,-3.8635,-3.8667,-3.8633,-3.8655,-3.8683,-3.8729,-3.8745,-3.8776,-3.8826,-3.8864,-3.8862,-3.8897,-3.8928,-3.8913,-3.8938,-3.8934,-3.8936,-3.8797,-3.8779,-3.895,-3.895,-3.895,-3.8949,-3.8949,-3.8949,-3.8653,-3.8723,-3.8715,-3.8791,-3.8797,-3.8846,-3.8861,-3.888,-3.8893,-3.8951,-3.8982,-3.8981,-3.8989,-3.9025,-3.9058,-3.9056,-3.907,-3.9101,-3.9094,-3.8964,-3.8945,-3.8928,-3.891,-3.9105,-3.9105,-3.9228,-3.9229,-3.923]},{"header":{"parameterUnit":"m.s-1","parameterCategory":1,"la1":30.2991,"la2":30.254,"lo1":-89.0895,"lo2":-89.0444,"dy":0.0017,"dx":0.0017,"nx":28,"ny":28,"refTime":"2023-08-21T21:00:00:Z","depth":0,"parameterNumber":3,"parameterNumberName":"V-component_of_WINDS"},"data":[0,0,0,0,0,0,0,0,0,0,0,0,0,0,0,0,0,0,0,0,0,0,0,0,0,0,0,0,0,0,0,0,0,0,0,0,0,0,0,0,0,0,0,0,0,0,0,0,0,0,0,0,0,0,0,0,0,0,1.6179,1.6179,0,1.6158,1.6157,1.6157,1.6102,1.6101,1.61,1.6099,1.6076,1.6076,1.6077,0,0,0,0,0,0,0,0,0,0,0,0,0,1.6172,1.6173,1.6179,1.6179,1.6178,1.6158,1.6157,1.6157,1.6102,1.6101,1.6099,1.6098,1.6076,1.6076,1.6077,0,0,0,0,0,0,0,0,0,0,0,0,0,1.6166,1.6173,1.6179,1.6149,1.6146,1.6158,1.6157,1.6157,1.6103,1.6101,1.6099,1.6097,1.6076,1.6076,1.6077,1.6117,0,0,1.6079,1.608,0,0,0,0,0,0,0,0,1.6166,1.6166,1.6153,1.6151,1.6147,1.6131,1.6147,1.6144,1.6103,1.6119,1.6099,1.6097,1.6096,1.6094,1.6094,1.6116,1.6115,1.6079,1.608,1.608,1.608,0,0,0,0,0,0,0,1.6167,1.6167,1.617,1.6153,1.615,1.6136,1.6133,1.6146,1.6117,1.6117,1.6113,1.6112,1.6094,1.6094,1.6093,1.6114,1.6079,1.608,1.608,1.6081,1.6168,1.617,0,0,0,0,0,0,1.6172,1.6167,1.6171,1.617,1.6153,1.6138,1.6134,1.6138,1.6117,1.6112,1.6113,1.6109,1.6093,1.6093,1.6092,1.6137,1.608,1.6081,1.6081,1.6166,1.6169,1.6171,0,0,0,0,0,0,1.6172,1.6172,1.6172,1.6168,1.6166,1.614,1.6144,1.6138,1.6138,1.6114,1.6108,1.6119,1.6092,1.6091,1.6111,1.6136,1.6081,1.6082,1.6164,1.6167,1.617,1.6228,0,0,0,0,0,0,1.6172,1.6173,1.6187,1.6168,1.6167,1.6191,1.6145,1.6139,1.614,1.6135,1.6117,1.6113,1.6091,1.6111,1.6112,1.6136,1.6082,1.6162,1.6165,1.6169,1.6224,1.6233,1.624,0,0,0,0,0,1.6172,1.6204,1.6188,1.6189,1.6184,1.6193,1.6192,1.6166,1.6142,1.6157,1.6141,1.6113,1.6134,1.6113,1.6114,1.6139,1.616,1.6164,1.6168,1.622,1.6231,1.624,0,0,0,0,0,0,1.6226,1.6201,1.6183,1.621,1.6204,1.6183,1.62,1.6178,1.6178,1.6173,1.614,1.6137,1.6161,1.6152,1.613,1.6177,1.6142,1.6147,1.6181,1.6191,1.6199,1.62,1.6083,0,0,0,0,0,1.6241,1.625,1.6228,1.6254,1.6252,1.6227,1.623,1.6211,1.6203,1.62,1.6185,1.6179,1.6184,1.6187,1.619,1.6223,1.6219,1.6241,1.6249,1.6256,1.626,1.6277,1.6287,1.6185,1.6185,1.6184,0,0,1.6272,1.626,1.6267,1.6265,1.6258,1.6268,1.6225,1.6237,1.6244,1.6201,1.6219,1.6209,1.62,1.6226,1.6237,1.6219,1.6288,1.6261,1.6267,1.6267,1.6282,1.6292,1.6301,1.6187,1.6187,1.6186,0,0,1.6334,1.6326,1.6347,1.6341,1.6331,1.6315,1.6321,1.6304,1.6296,1.6313,1.6282,1.629,1.6299,1.6293,1.6292,1.6355,1.6329,1.6357,1.6399,1.6416,1.6424,1.6431,1.6453,1.6461,1.6361,1.6362,1.6362,0,1.6373,1.6387,1.636,1.6375,1.6375,1.6338,1.6359,1.6355,1.6347,1.6348,1.6329,1.634,1.6331,1.6356,1.6372,1.6372,1.6377,1.6358,1.6425,1.6432,1.6438,1.6459,1.6467,1.6365,1.6365,1.6364,1.6364,0,1.6436,1.6447,1.6465,1.6459,1.6462,1.648,1.6456,1.6462,1.6443,1.6429,1.6449,1.6437,1.6437,1.6442,1.6424,1.6466,1.6455,1.6431,1.6395,1.6452,1.647,1.6478,1.637,1.6369,1.6368,1.6367,0,0,1.6529,1.651,1.6517,1.6514,1.6502,1.6509,1.6526,1.6528,1.6533,1.653,1.6543,1.6553,1.6531,1.653,1.6511,1.6526,1.6577,1.65,1.6499,1.6514,1.6622,1.6639,1.6649,1.6561,1.6562,1.6563,1.6623,0,1.6586,1.6614,1.6591,1.6623,1.6633,1.6599,1.6614,1.6609,1.6597,1.6603,1.659,1.6597,1.6568,1.6567,1.6581,1.6568,1.6598,1.6563,1.6572,1.6573,1.6574,1.6658,1.6676,1.6733,1.663,1.6631,1.6632,0,1.6656,1.6657,1.669,1.6677,1.668,1.6694,1.6694,1.6701,1.6694,1.6685,1.6685,1.6662,1.6678,1.6646,1.6667,1.6645,1.6647,1.6642,1.6643,1.6641,1.6605,1.6658,1.675,1.6758,1.6643,1.6642,1.6642,0,1.6719,1.6729,1.675,1.6749,1.6734,1.6745,1.674,1.6732,1.6734,1.6735,1.6736,1.6739,1.6739,1.6742,1.6721,1.6699,1.6746,1.6711,1.6738,1.6738,1.6747,1.6747,1.684,1.6752,1.6752,1.6752,1.6751,0,1.6785,1.6806,1.6778,1.6791,1.6814,1.6789,1.6813,1.6804,1.6798,1.6809,1.678,1.6791,1.6763,1.6771,1.6755,1.6776,1.6777,1.6769,1.6764,1.6771,1.6772,1.6771,1.6766,1.6754,1.6753,1.6753,1.6752,0,1.6858,1.684,1.6861,1.6847,1.6844,1.6862,1.685,1.6861,1.6849,1.6863,1.6865,1.6845,1.6853,1.6833,1.6838,1.6827,1.6857,1.6846,1.6859,1.6855,1.6883,1.688,1.6977,1.6989,1.6895,1.6896,1.6897,0,1.69,1.6916,1.6904,1.691,1.6906,1.6916,1.6919,1.6896,1.69,1.6895,1.6907,1.6914,1.6917,1.6932,1.6918,1.6922,1.691,1.6944,1.6911,1.6917,1.691,1.6909,1.691,1.6951,1.6952,1.6953,1.6953,0,1.6977,1.6968,1.6974,1.6977,1.6982,1.6983,1.6982,1.6989,1.6964,1.6971,1.6979,1.6982,1.6988,1.6994,1.6996,1.699,1.6968,1.6965,1.6971,1.6977,1.6983,1.698,1.6876,1.6962,1.6961,1.696,1.696,1.696,1.7036,1.7048,1.7043,1.705,1.7048,1.7048,1.7059,1.7048,1.7055,1.7058,1.7045,1.7057,1.7051,1.7051,1.7048,1.7057,1.7042,1.7051,1.7053,1.7055,1.706,1.6984,1.7057,1.7057,1.7057,1.7057,1.7056,0,1.711,1.7105,1.7113,1.7114,1.712,1.71,1.7099,1.7105,1.7116,1.7114,1.7118,1.7129,1.7135,1.7123,1.7128,1.7137,1.7127,1.7139,1.7137,1.7137,1.7073,1.7067,1.7147,1.7147,1.7147,1.7147,1.7147,1.7147,1.715,1.7171,1.7161,1.7181,1.7176,1.7188,1.7189,1.719,1.7187,1.72,1.7206,1.7199,1.7192,1.7197,1.7202,1.7198,1.7201,1.7216,1.7209,1.715,1.7141,1.7132,1.7126,1.7218,1.7218,1.7271,1.7272,1.7272]}]]